• In Hungary
  • List of Countries
  • For 7 days
  • Water Temperature
  • Satellite Maps
  • Weather Map
  • News
  • Weather Widgets
  • user-avatar
    Login

    Hourly Weather Kutepovo

    Today, 21 August, Tuesday

    Time Temperature Precipitation Wind Pressure Humidity
    00:00 +18°C° 0 mm 3 mps 742 mmHg 89%
    01:00 +17°C° 0 mm 3 mps 742 mmHg 90%
    02:00 +17°C° 0 mm 3 mps 742 mmHg 92%
    03:00 +17°C° 0 mm 3 mps 741 mmHg 91%
    04:00 +17°C° 0 mm 4 mps 741 mmHg 91%
    05:00 +17°C° 0 mm 4 mps 741 mmHg 90%
    06:00 +19°C° 0 mm 5 mps 740 mmHg 84%
    07:00 +21°C° 0 mm 6 mps 740 mmHg 77%
    08:00 +22°C° 0 mm 7 mps 740 mmHg 71%
    09:00 +23°C° 0.2 mm 7 mps 739 mmHg 68%
    10:00 +24°C° 0.2 mm 7 mps 739 mmHg 65%
    11:00 +26°C° 0.2 mm 8 mps 739 mmHg 63%
    12:00 +26°C° 1.2 mm 8 mps 738 mmHg 67%
    13:00 +24°C° 1.2 mm 7 mps 738 mmHg 71%
    14:00 +23°C° 1.2 mm 7 mps 738 mmHg 75%
    15:00 +23°C° 0.6 mm 6 mps 738 mmHg 77%
    16:00 +22°C° 0.6 mm 6 mps 738 mmHg 78%
    17:00 +21°C° 0.6 mm 5 mps 738 mmHg 80%
    18:00 +20°C° 0 mm 4 mps 738 mmHg 82%
    19:00 +18°C° 0 mm 4 mps 739 mmHg 84%
    20:00 +17°C° 0 mm 3 mps 739 mmHg 86%
    21:00 +16°C° 0 mm 3 mps 739 mmHg 85%
    22:00 +14°C° 0 mm 3 mps 740 mmHg 85%
    23:00 +13°C° 0 mm 3 mps 740 mmHg 84%

    Tomorrow, 22 August, Wednesday

    Time Temperature Precipitation Wind Pressure Humidity
    00:00 +12°C° 0 mm 3 mps 741 mmHg 85%
    01:00 +11°C° 0 mm 3 mps 741 mmHg 86%
    02:00 +11°C° 0 mm 3 mps 741 mmHg 87%
    03:00 +10°C° 0 mm 3 mps 742 mmHg 88%
    04:00 +10°C° 0 mm 3 mps 742 mmHg 88%
    05:00 +10°C° 0 mm 3 mps 742 mmHg 88%
    06:00 +11°C° 0 mm 4 mps 743 mmHg 81%
    07:00 +13°C° 0 mm 4 mps 743 mmHg 74%
    08:00 +14°C° 0 mm 5 mps 743 mmHg 67%
    09:00 +16°C° 0 mm 5 mps 743 mmHg 63%
    10:00 +17°C° 0 mm 5 mps 744 mmHg 58%
    11:00 +19°C° 0 mm 6 mps 744 mmHg 54%
    12:00 +19°C° 0 mm 5 mps 744 mmHg 52%
    13:00 +19°C° 0 mm 5 mps 744 mmHg 51%
    14:00 +20°C° 0 mm 5 mps 744 mmHg 50%
    15:00 +19°C° 0 mm 5 mps 745 mmHg 54%
    16:00 +19°C° 0 mm 4 mps 745 mmHg 57%
    17:00 +18°C° 0 mm 3 mps 745 mmHg 61%
    18:00 +17°C° 0 mm 3 mps 746 mmHg 65%
    19:00 +14°C° 0 mm 3 mps 746 mmHg 68%
    20:00 +12°C° 0 mm 3 mps 747 mmHg 72%
    21:00 +11°C° 0 mm 3 mps 747 mmHg 74%
    22:00 +11°C° 0 mm 3 mps 748 mmHg 75%
    23:00 +10°C° 0 mm 2 mps 748 mmHg 77%

    Day after tomorrow, 23 August, Thursday

    Time Temperature Precipitation Wind Pressure Humidity
    00:00 +9°C° 0 mm 2 mps 748 mmHg 78%
    01:00 +9°C° 0 mm 2 mps 749 mmHg 79%
    02:00 +9°C° 0 mm 2 mps 749 mmHg 80%
    03:00 +8°C° 0 mm 2 mps 749 mmHg 81%
    04:00 +8°C° 0 mm 2 mps 749 mmHg 82%
    05:00 +8°C° 0 mm 2 mps 750 mmHg 83%
    06:00 +10°C° 0 mm 2 mps 750 mmHg 76%
    07:00 +13°C° 0 mm 1 mps 750 mmHg 69%
    08:00 +15°C° 0 mm 1 mps 750 mmHg 62%
    09:00 +16°C° 0 mm 2 mps 750 mmHg 56%
    10:00 +18°C° 0 mm 2 mps 750 mmHg 50%
    11:00 +19°C° 0 mm 2 mps 750 mmHg 45%
    12:00 +19°C° 0 mm 2 mps 750 mmHg 44%
    13:00 +20°C° 0 mm 2 mps 750 mmHg 43%
    14:00 +20°C° 0 mm 2 mps 750 mmHg 42%
    15:00 +21°C° 0 mm 1 mps 750 mmHg 46%
    16:00 +21°C° 0 mm 1 mps 750 mmHg 50%
    17:00 +20°C° 0 mm 1 mps 749 mmHg 54%
    18:00 +18°C° 0 mm 1 mps 749 mmHg 57%
    19:00 +15°C° 0 mm 1 mps 749 mmHg 61%
    20:00 +13°C° 0 mm 1 mps 749 mmHg 64%
    21:00 +13°C° 0 mm 1 mps 750 mmHg 65%
    22:00 +13°C° 0 mm 1 mps 750 mmHg 67%
    23:00 +12°C° 0 mm 1 mps 750 mmHg 68%

    24 August, Friday

    Time Temperature Precipitation Wind Pressure Humidity
    00:00 +12°C° 0 mm 1 mps 750 mmHg 69%
    01:00 +12°C° 0 mm 1 mps 750 mmHg 70%
    02:00 +10°C° 0 mm 2 mps 750 mmHg 71%
    03:00 +10°C° 0 mm 2 mps 750 mmHg 73%
    04:00 +10°C° 0 mm 2 mps 750 mmHg 74%
    05:00 +10°C° 0 mm 2 mps 750 mmHg 75%
    06:00 +13°C° 0 mm 2 mps 750 mmHg 70%
    07:00 +15°C° 0 mm 2 mps 750 mmHg 65%
    08:00 +17°C° 0 mm 2 mps 750 mmHg 60%
    09:00 +18°C° 0 mm 3 mps 749 mmHg 56%
    10:00 +20°C° 0 mm 3 mps 749 mmHg 52%
    11:00 +21°C° 0 mm 3 mps 749 mmHg 48%
    12:00 +21°C° 0 mm 3 mps 749 mmHg 47%
    13:00 +22°C° 0 mm 3 mps 748 mmHg 47%
    14:00 +22°C° 0 mm 3 mps 748 mmHg 46%
    15:00 +22°C° 0 mm 3 mps 748 mmHg 50%
    16:00 +21°C° 0 mm 2 mps 747 mmHg 54%
    17:00 +21°C° 0 mm 2 mps 747 mmHg 58%
    18:00 +19°C° 0 mm 2 mps 747 mmHg 62%
    19:00 +17°C° 0 mm 2 mps 747 mmHg 66%
    20:00 +15°C° 0 mm 2 mps 747 mmHg 70%
    21:00 +15°C° 0 mm 2 mps 747 mmHg 71%
    22:00 +14°C° 0 mm 2 mps 747 mmHg 72%
    23:00 +13°C° 0 mm 3 mps 747 mmHg 73%

    25 August, Saturday

    Time Temperature Precipitation Wind Pressure Humidity
    00:00 +13°C° 0 mm 3 mps 747 mmHg 73%
    01:00 +12°C° 0 mm 3 mps 747 mmHg 73%
    02:00 +12°C° 0 mm 3 mps 746 mmHg 73%
    03:00 +12°C° 0 mm 3 mps 746 mmHg 73%
    04:00 +12°C° 0 mm 3 mps 746 mmHg 74%
    05:00 +11°C° 0 mm 3 mps 746 mmHg 74%
    06:00 +13°C° 0 mm 3 mps 746 mmHg 69%
    07:00 +17°C° 0 mm 3 mps 746 mmHg 65%
    08:00 +19°C° 0 mm 3 mps 746 mmHg 60%
    09:00 +20°C° 0 mm 4 mps 746 mmHg 55%
    10:00 +22°C° 0 mm 4 mps 746 mmHg 50%
    11:00 +23°C° 0 mm 5 mps 746 mmHg 45%
    12:00 +23°C° 0 mm 5 mps 745 mmHg 45%
    13:00 +25°C° 0 mm 5 mps 745 mmHg 45%
    14:00 +25°C° 0 mm 5 mps 745 mmHg 44%
    15:00 +23°C° 0 mm 4 mps 744 mmHg 49%
    16:00 +24°C° 0 mm 3 mps 744 mmHg 53%
    17:00 +22°C° 0 mm 3 mps 744 mmHg 58%
    18:00 +20°C° 0 mm 3 mps 744 mmHg 61%
    19:00 +18°C° 0 mm 3 mps 744 mmHg 65%
    20:00 +17°C° 0 mm 3 mps 744 mmHg 68%
    21:00 +16°C° 0 mm 3 mps 744 mmHg 68%
    22:00 +16°C° 0 mm 3 mps 744 mmHg 67%
    23:00 +14°C° 0 mm 3 mps 743 mmHg 67%

    26 August, Sunday

    Time Temperature Precipitation Wind Pressure Humidity
    00:00 +14°C° 0 mm 3 mps 743 mmHg 66%
    01:00 +14°C° 0 mm 3 mps 743 mmHg 66%
    02:00 +13°C° 0 mm 3 mps 743 mmHg 65%
    03:00 +13°C° 0 mm 3 mps 743 mmHg 66%
    04:00 +13°C° 0 mm 3 mps 743 mmHg 66%
    05:00 +12°C° 0 mm 3 mps 743 mmHg 66%
    06:00 +14°C° 0 mm 3 mps 743 mmHg 62%
    07:00 +17°C° 0 mm 4 mps 743 mmHg 58%
    08:00 +19°C° 0 mm 4 mps 743 mmHg 55%
    09:00 +21°C° 0 mm 4 mps 743 mmHg 50%
    10:00 +23°C° 0 mm 4 mps 743 mmHg 46%
    11:00 +25°C° 0 mm 5 mps 743 mmHg 41%
    12:00 +26°C° 0 mm 5 mps 742 mmHg 40%
    13:00 +26°C° 0 mm 5 mps 742 mmHg 39%
    14:00 +27°C° 0 mm 4 mps 742 mmHg 38%
    15:00 +26°C° 0 mm 4 mps 742 mmHg 43%
    16:00 +25°C° 0 mm 3 mps 742 mmHg 48%
    17:00 +24°C° 0 mm 3 mps 742 mmHg 53%
    18:00 +22°C° 0 mm 3 mps 742 mmHg 53%
    19:00 +20°C° 0 mm 3 mps 742 mmHg 54%
    20:00 +19°C° 0 mm 3 mps 742 mmHg 55%
    21:00 +19°C° 0 mm 3 mps 742 mmHg 53%
    22:00 +19°C° 0 mm 3 mps 742 mmHg 52%
    23:00 +18°C° 0 mm 3 mps 742 mmHg 50%
    Show more